Wind_Speed
35 35 35 35 36 36 36 36 36 34 35 35 35 34 33 32 32 32 32 32 32 33 32 32 33 33 33 33 34 34 34 34 35 36 36 37 37 38 38 39 40 40 40
35 35 36 36 36 37 37 37 36 36 35 35 35 34 33 33 33 33 33 33 33 33 33 33 33 34 34 35 35 36 36 36 36 37 37 37 38 39 39 40 40 41 41
35 35 35 35 36 37 37 37 37 37 36 34 34 34 34 34 33 33 34 34 34 34 34 35 35 36 36 36 36 37 38 38 38 39 39 39 39 39 40 41 42 43 42
34 34 35 36 36 37 37 37 37 37 37 36 35 35 36 36 35 35 35 35 35 36 35 35 36 36 36 37 37 38 38 39 40 40 40 41 41 41 42 43 43 44 44
32 32 34 35 36 36 36 36 37 38 38 38 37 36 36 37 36 36 36 36 36 37 37 37 37 37 37 38 38 39 40 40 40 41 42 42 43 43 43 44 45 45 45
31 31 32 34 35 36 36 37 37 38 38 38 39 38 37 37 37 37 37 37 38 38 39 39 38 38 38 39 40 40 41 41 41 42 43 43 44 44 45 46 46 46 46
30 31 31 32 34 35 36 36 37 38 38 38 39 39 38 37 37 38 38 38 39 39 40 40 40 40 40 41 41 42 42 42 42 43 43 44 44 45 46 46 47 47 47
29 30 31 32 33 35 36 36 36 37 38 39 39 40 39 39 39 39 40 41 41 40 41 41 41 41 42 42 43 43 43 43 43 44 45 45 46 46 46 47 48 49 49
29 29 30 32 33 34 35 37 37 37 38 39 40 40 41 40 40 40 40 41 42 42 41 41 41 42 43 44 44 44 44 44 45 46 47 47 47 47 48 48 49 49 50
29 30 30 31 33 34 35 36 37 38 38 39 40 40 41 41 41 41 41 41 42 42 42 42 43 43 44 45 45 45 46 47 46 47 47 48 48 48 48 48 49 49 50
29 29 30 31 32 34 35 36 37 38 38 38 40 40 40 40 41 42 42 43 43 44 44 44 44 45 45 46 47 47 48 48 48 48 49 50 50 49 49 49 49 49 49
29 30 30 31 32 33 34 36 36 37 38 38 39 40 41 41 42 42 43 43 44 45 45 45 46 46 46 47 47 48 48 48 49 49 49 49 49 49 49 49 48 48 49
30 30 31 31 32 33 34 35 36 37 38 39 39 40 40 41 41 42 43 43 43 44 45 45 46 46 47 47 47 47 48 49 49 48 48 47 47 47 47 47 47 47 48
32 31 31 32 33 33 34 34 35 37 38 38 39 40 41 42 42 42 42 43 43 43 44 45 45 46 46 47 47 47 48 48 47 47 47 46 46 46 46 46 46 46 46
31 32 32 32 33 34 34 35 36 36 37 38 39 39 40 41 42 42 42 43 43 44 44 44 45 46 46 45 45 46 46 46 46 46 46 46 46 45 45 45 45 45 46
32 33 34 34 34 35 36 36 37 37 38 39 39 40 40 41 42 43 43 43 43 43 43 43 44 44 44 45 45 45 45 45 45 45 46 46 46 45 45 46 46 45 45
34 35 35 35 35 36 36 37 36 37 37 38 39 40 41 41 41 42 43 44 44 44 44 44 45 44 45 45 45 45 45 45 45 46 46 46 45 46 46 46 46 46 46
34 35 36 36 36 36 37 37 37 37 38 39 39 40 41 42 42 42 43 43 44 44 45 45 45 45 45 46 46 46 46 46 46 45 45 45 45 46 47 47 48 48 47
35 36 36 36 36 37 37 38 38 39 39 40 40 41 42 42 42 43 43 44 44 44 44 45 45 46 46 46 46 46 46 46 46 45 45 46 46 47 47 48 48 49 49
34 35 35 36 37 37 37 38 38 39 39 40 41 41 42 42 43 43 43 43 44 44 44 45 46 46 46 46 47 47 47 47 47 47 47 47 47 48 48 49 49 49 50
34 35 35 35 35 36 37 38 38 39 39 39 39 40 41 42 42 43 43 44 44 44 44 45 45 46 46 47 47 47 47 48 48 48 48 48 48 48 48 49 49 49 50
33 34 35 35 36 37 37 38 38 39 39 40 40 40 40 41 42 43 43 44 44 44 44 45 45 45 45 46 46 46 47 47 47 48 48 48 48 48 48 48 49 49 50
34 34 35 35 36 37 38 38 39 39 39 40 40 40 41 41 41 42 42 43 44 44 44 44 44 44 44 45 45 46 46 46 47 47 47 47 47 47 47 48 49 49 50
33 34 34 34 35 35 36 37 38 39 39 39 40 40 40 41 41 41 41 41 41 41 42 42 42 42 43 43 43 44 45 46 46 46 45 45 45 46 47 47 48 48 49
32 32 32 33 33 34 35 37 38 38 38 39 39 39 39 40 40 40 40 40 40 40 40 40 39 39 40 40 41 42 43 43 44 44 44 44 45 45 46 46 47 48 48
31 31 31 32 32 33 34 35 36 37 37 38 38 38 38 38 38 38 38 38 38 38 38 38 38 38 39 39 40 41 42 42 43 43 44 44 44 45 46 46 47 47 47
Wind_Direction
246 244 244 244 245 247 248 249 249 251 253 253 253 255 254 255 256 258 258 259 259 259 260 260 261 262 262 262 262 263 263 264 265 265 265 265 266 265 264 263 263 263 263
246 244 244 244 245 247 248 248 249 250 251 253 252 253 252 253 256 257 260 260 260 260 261 261 262 263 263 263 264 264 264 266 266 267 267 267 268 267 265 264 264 264 265
247 246 246 246 246 246 247 248 248 249 250 252 252 251 252 253 255 259 261 261 261 260 261 262 263 264 264 265 265 266 266 266 267 268 268 269 269 268 267 267 266 266 266
248 247 247 246 246 246 248 248 248 248 249 250 252 252 252 254 256 258 261 261 261 261 262 264 264 265 266 267 267 267 268 267 268 269 269 270 270 269 268 268 268 267 267
250 249 248 248 248 247 247 248 248 248 249 250 252 253 253 254 256 257 260 260 261 262 264 265 266 267 268 268 268 269 269 268 268 269 270 270 271 270 269 270 270 268 268
251 251 251 250 250 248 247 248 248 249 250 251 251 253 254 254 255 257 259 262 262 263 264 266 267 269 269 268 268 269 270 269 269 270 270 271 271 271 270 270 270 270 268
253 253 252 252 251 251 249 249 249 250 251 252 252 252 254 255 255 257 259 261 262 262 264 266 267 268 268 269 269 269 270 270 271 271 271 271 271 271 271 271 271 269 268
255 253 252 252 252 252 251 250 250 251 252 252 253 253 255 255 256 257 259 260 261 263 264 265 266 267 268 269 270 270 271 271 272 272 271 272 272 272 271 272 271 269 267
257 256 255 254 253 253 252 250 251 252 253 253 253 254 255 256 257 258 260 261 262 263 264 265 267 268 268 269 270 271 271 272 272 272 272 272 272 272 272 272 272 270 268
257 257 257 257 255 254 253 251 251 253 253 253 253 254 256 257 257 258 260 261 263 264 264 265 267 268 269 270 271 272 272 272 273 273 273 272 272 272 273 273 273 271 269
259 260 259 258 257 256 253 252 253 253 253 253 254 255 256 257 258 259 260 263 264 264 265 267 268 269 270 271 272 272 273 273 273 273 273 273 272 272 273 272 273 272 269
261 261 261 259 258 258 255 253 254 254 254 255 255 256 257 258 259 260 261 263 264 265 266 267 268 269 271 272 272 273 273 273 273 273 274 274 273 273 273 273 273 272 270
263 263 262 261 260 259 258 257 256 255 255 256 256 258 259 259 260 261 263 264 265 266 266 267 268 269 271 272 273 273 273 273 273 273 274 274 274 273 273 273 273 273 272
265 264 263 262 261 260 259 259 259 257 256 256 257 258 259 260 260 261 263 265 266 267 268 268 269 270 271 272 273 273 273 273 273 273 273 274 274 274 274 273 273 273 272
264 263 263 263 261 260 259 261 261 260 259 259 258 258 259 260 261 263 264 265 267 267 267 268 268 270 271 271 271 272 273 273 272 272 272 273 273 274 274 273 273 273 273
264 263 263 263 262 261 261 262 262 261 261 260 259 259 259 261 262 264 265 266 267 267 267 268 269 269 270 271 272 272 272 272 272 272 272 273 273 273 274 274 274 275 275
265 264 264 264 264 263 263 264 263 262 261 262 261 260 261 261 263 265 266 267 267 268 268 269 270 270 270 271 271 272 273 272 271 272 272 272 272 273 274 275 275 276 276
266 266 265 265 265 264 264 263 263 263 263 263 263 262 262 263 264 265 267 267 267 268 269 269 269 270 270 271 272 272 273 272 272 272 272 272 272 273 274 275 275 276 276
268 267 267 266 266 266 264 263 263 264 265 265 265 265 265 265 265 266 267 268 268 269 269 269 270 270 271 271 272 272 272 272 272 272 272 273 273 274 274 275 276 276 276
268 267 268 269 269 267 266 265 265 266 266 266 266 267 267 267 267 267 268 268 269 269 270 270 271 271 271 271 271 271 271 271 271 271 272 273 273 274 274 274 275 275 276
268 268 268 268 268 268 268 268 268 268 267 267 267 267 267 268 268 268 268 269 270 270 271 271 272 272 272 272 271 271 270 270 271 271 272 273 274 274 274 274 275 276 275
269 269 269 268 268 268 269 269 270 269 270 269 269 269 269 269 269 269 270 270 271 272 272 272 272 272 273 273 272 271 270 270 271 271 272 273 273 274 274 274 275 276 276
271 270 269 268 269 269 270 270 271 272 272 271 271 271 270 270 271 271 271 271 272 272 272 273 273 273 274 273 272 271 270 271 271 271 272 273 273 274 274 275 275 276 276
272 271 269 269 270 271 271 272 272 273 273 272 272 271 271 271 272 272 272 272 273 273 273 274 275 274 275 274 274 273 272 272 272 272 272 273 273 274 275 275 276 277 277
275 273 273 272 273 273 273 274 274 273 273 272 272 271 271 272 272 273 273 274 274 275 275 276 276 276 276 276 275 274 273 273 273 273 273 273 274 274 275 276 276 277 278
276 276 275 275 275 275 275 276 276 275 273 271 271 271 271 272 273 273 273 273 273 274 275 276 276 277 277 277 276 275 274 273 273 273 273 274 275 276 276 277 278 278 278
Height
5692 5695 5697 5699 5701 5704 5706 5709 5711 5713 5715 5717 5718 5719 5720 5722 5723 5724 5724 5724 5725 5726 5726 5727 5727 5728 5729 5729 5730 5731 5732 5732 5733 5733 5734 5734 5734 5734 5734 5735 5735 5735 5736
5683 5686 5688 5691 5693 5695 5697 5700 5702 5704 5706 5708 5709 5711 5712 5713 5715 5715 5716 5716 5716 5717 5718 5718 5719 5720 5720 5721 5721 5722 5722 5722 5723 5723 5724 5724 5725 5724 5723 5724 5724 5724 5724
5674 5677 5680 5682 5684 5687 5689 5691 5693 5695 5697 5699 5700 5702 5703 5705 5706 5707 5707 5707 5708 5708 5709 5709 5710 5711 5711 5711 5712 5712 5713 5713 5713 5713 5713 5714 5714 5714 5713 5713 5712 5712 5712
5666 5668 5671 5673 5675 5677 5679 5682 5684 5685 5687 5689 5691 5693 5695 5696 5698 5698 5698 5698 5699 5699 5700 5700 5701 5701 5701 5702 5702 5702 5702 5703 5703 5702 5702 5702 5702 5702 5702 5702 5701 5701 5701
5657 5659 5662 5664 5666 5668 5670 5672 5674 5676 5678 5680 5682 5684 5685 5686 5688 5688 5689 5689 5689 5690 5690 5691 5691 5691 5691 5691 5691 5692 5692 5692 5692 5692 5691 5691 5690 5690 5690 5691 5690 5689 5689
5649 5651 5653 5654 5656 5658 5660 5662 5664 5666 5668 5670 5672 5674 5675 5676 5678 5678 5679 5679 5680 5680 5680 5681 5681 5681 5681 5681 5681 5681 5681 5681 5681 5680 5680 5679 5679 5678 5678 5678 5678 5677 5676
5640 5642 5644 5645 5647 5649 5651 5653 5655 5657 5658 5660 5662 5664 5666 5667 5668 5669 5669 5669 5670 5670 5670 5670 5671 5671 5671 5670 5670 5670 5670 5670 5669 5669 5668 5667 5667 5666 5666 5665 5665 5664 5664
5632 5633 5635 5636 5638 5640 5642 5643 5645 5647 5648 5650 5652 5654 5655 5656 5657 5658 5659 5659 5659 5659 5659 5659 5660 5660 5660 5660 5659 5659 5659 5658 5658 5657 5656 5655 5654 5654 5653 5653 5652 5651 5651
5623 5624 5626 5627 5628 5630 5632 5633 5635 5637 5638 5640 5641 5643 5645 5646 5647 5648 5648 5648 5648 5648 5648 5648 5648 5648 5648 5648 5648 5648 5647 5646 5645 5644 5643 5643 5642 5641 5640 5639 5638 5638 5637
5615 5616 5617 5618 5619 5620 5622 5623 5625 5627 5628 5630 5631 5632 5634 5635 5636 5636 5637 5637 5637 5637 5637 5637 5637 5637 5637 5636 5636 5635 5634 5634 5633 5631 5630 5629 5628 5627 5626 5625 5624 5623 5623
5606 5607 5608 5609 5609 5610 5612 5613 5614 5616 5617 5619 5620 5621 5623 5624 5624 5625 5626 5626 5626 5626 5626 5626 5625 5625 5624 5624 5623 5622 5622 5621 5620 5618 5617 5616 5615 5614 5613 5612 5610 5609 5609
5597 5598 5599 5599 5600 5601 5602 5603 5604 5606 5607 5608 5610 5611 5612 5613 5613 5614 5614 5614 5614 5614 5614 5614 5613 5613 5612 5611 5610 5609 5608 5607 5606 5605 5603 5602 5601 5600 5599 5598 5597 5596 5595
5588 5589 5590 5590 5591 5591 5592 5593 5594 5595 5597 5598 5599 5600 5601 5602 5602 5603 5603 5603 5603 5602 5602 5601 5600 5600 5599 5598 5597 5596 5595 5594 5593 5591 5590 5589 5588 5587 5586 5585 5584 5583 5582
5579 5580 5580 5581 5581 5582 5583 5583 5584 5585 5586 5587 5588 5589 5589 5590 5591 5591 5591 5591 5590 5590 5589 5589 5588 5587 5586 5585 5584 5583 5582 5580 5579 5578 5577 5576 5575 5574 5573 5572 5571 5570 5569
5570 5570 5571 5571 5572 5572 5572 5573 5573 5574 5575 5576 5576 5577 5578 5578 5579 5579 5579 5579 5578 5578 5577 5576 5575 5574 5573 5572 5571 5570 5569 5567 5566 5565 5564 5564 5562 5561 5560 5559 5559 5557 5556
5560 5561 5561 5561 5562 5562 5562 5563 5563 5563 5564 5565 5565 5566 5566 5566 5567 5567 5566 5566 5566 5565 5564 5563 5562 5561 5560 5559 5558 5557 5556 5554 5553 5552 5552 5551 5550 5549 5548 5547 5546 5544 5543
5551 5551 5551 5551 5551 5551 5552 5552 5552 5553 5553 5553 5554 5554 5554 5554 5554 5554 5554 5553 5553 5552 5551 5551 5550 5549 5547 5546 5545 5544 5542 5542 5541 5540 5539 5538 5537 5536 5535 5534 5532 5531 5530
5541 5541 5541 5541 5541 5541 5541 5541 5541 5541 5542 5542 5542 5542 5542 5542 5542 5541 5541 5540 5540 5539 5538 5537 5536 5535 5534 5533 5531 5530 5529 5528 5528 5527 5526 5525 5524 5523 5522 5521 5520 5518 5516
5531 5530 5530 5530 5530 5530 5530 5530 5530 5530 5530 5530 5530 5530 5530 5529 5529 5529 5528 5528 5527 5526 5525 5524 5523 5522 5520 5519 5518 5517 5516 5515 5515 5514 5513 5512 5511 5510 5509 5508 5507 5505 5503
5520 5520 5520 5519 5519 5519 5519 5519 5519 5519 5519 5518 5518 5517 5517 5516 5516 5516 5515 5514 5514 5513 5512 5511 5509 5508 5506 5505 5504 5503 5502 5502 5501 5500 5500 5499 5498 5496 5495 5494 5493 5492 5490
5510 5510 5509 5509 5508 5508 5507 5507 5507 5507 5506 5506 5506 5505 5504 5503 5503 5502 5502 5501 5500 5499 5498 5497 5496 5494 5493 5491 5490 5489 5488 5487 5487 5487 5486 5485 5484 5483 5481 5480 5479 5478 5477
5499 5499 5499 5498 5498 5497 5496 5495 5495 5494 5494 5494 5493 5492 5491 5491 5490 5489 5488 5487 5486 5485 5484 5483 5482 5480 5478 5477 5475 5474 5474 5473 5473 5472 5472 5471 5470 5469 5467 5466 5465 5464 5462
5489 5488 5488 5487 5486 5485 5484 5484 5483 5482 5482 5481 5480 5479 5478 5477 5477 5476 5475 5474 5472 5471 5470 5469 5467 5466 5464 5463 5462 5460 5460 5459 5459 5458 5457 5457 5456 5455 5453 5452 5451 5449 5448
5478 5478 5477 5476 5475 5474 5473 5472 5471 5470 5469 5468 5467 5466 5465 5464 5463 5462 5461 5460 5459 5457 5456 5455 5453 5452 5451 5449 5448 5447 5446 5445 5445 5444 5443 5442 5441 5440 5439 5438 5436 5435 5433
5468 5467 5466 5465 5464 5462 5461 5460 5459 5458 5456 5455 5454 5453 5452 5451 5450 5449 5448 5447 5446 5444 5443 5441 5440 5439 5438 5436 5435 5434 5433 5432 5431 5430 5429 5429 5428 5427 5425 5424 5422 5420 5418
5458 5457 5456 5455 5453 5452 5450 5449 5447 5445 5444 5443 5442 5441 5440 5439 5438 5437 5436 5434 5433 5432 5430 5429 5428 5426 5425 5423 5422 5421 5419 5418 5417 5417 5416 5415 5414 5413 5411 5410 5408 5406 5404